AO-71 (37854 NORAD) Tracking and Keplerian Element Data

This shows tracking and keplerian element data for the satellite.

Feedback or suggestion? Click here.




ElementValue
Catalog37854
NameAO-71
Epoch Orbit51483
Epoch Day91.16983407
Epoch Year2021
RAAN337.4851
Inclination101.7044
Eccentricity0.0155112
Argument of Perigee285.7318
Mean Anonmoly72.6834
Mean Motion15.08363538
Decay Rate2.246E-05
L11 37854U 11061E 21091.16983407 .00002246 00000-0 11728-3 0 9993
L22 37854 101.7044 337.4851 0155112 285.7318 72.6834 15.08363538514839



Live tracking and technical data element details for AO-71 (NORAD 37854). AO-71 can be tracked NOW for your location showing map with azimuth and elevation plus other details from your city location.







IsCatalogInMostPopularTable: catalog: 37854, numindb: 387
Update: records affected: 1



GetName: 37854 AO-71

Hit Count: updated at: Mon, 28 Nov 2022 03:49:08 GMT